TimePDT,TemperatureF,Dew PointF,Humidity,Sea Level PressureIn,VisibilityMPH,Wind Direction,Wind SpeedMPH,Gust SpeedMPH,PrecipitationIn,Events,Conditions,WindDirDegrees,DateUTC
12:10 AM,57.2,50.0,77,30.17,10.0,WNW,3.5,-,N/A,,Overcast,290,2013-05-27 07:10:00
12:30 AM,57.2,50.0,77,30.17,10.0,West,3.5,-,N/A,,Overcast,270,2013-05-27 07:30:00
12:50 AM,57.2,50.0,77,30.16,10.0,WSW,6.9,-,N/A,,Mostly Cloudy,250,2013-05-27 07:50:00
1:10 AM,55.4,50.0,82,30.16,10.0,West,9.2,-,N/A,,Overcast,260,2013-05-27 08:10:00
1:30 AM,55.4,50.0,82,30.16,10.0,West,9.2,-,N/A,,Overcast,280,2013-05-27 08:30:00
1:50 AM,57.2,48.2,72,30.16,10.0,West,6.9,-,N/A,,Overcast,260,2013-05-27 08:50:00
2:10 AM,57.2,48.2,72,30.15,10.0,West,4.6,-,N/A,,Mostly Cloudy,270,2013-05-27 09:10:00
2:30 AM,55.4,48.2,77,30.14,10.0,WSW,4.6,-,N/A,,Scattered Clouds,240,2013-05-27 09:30:00
2:50 AM,55.4,48.2,77,30.14,10.0,West,4.6,-,N/A,,Clear,260,2013-05-27 09:50:00
3:10 AM,55.4,48.2,77,30.14,10.0,West,6.9,-,N/A,,Clear,260,2013-05-27 10:10:00
3:30 AM,55.4,48.2,77,30.14,10.0,West,5.8,-,N/A,,Partly Cloudy,270,2013-05-27 10:30:00
3:50 AM,55.4,48.2,77,30.13,10.0,West,4.6,-,N/A,,Scattered Clouds,260,2013-05-27 10:50:00
4:10 AM,55.4,48.2,77,30.13,10.0,West,4.6,-,N/A,,Mostly Cloudy,260,2013-05-27 11:10:00
4:30 AM,55.4,50.0,82,30.13,10.0,West,4.6,-,N/A,,Mostly Cloudy,260,2013-05-27 11:30:00
4:50 AM,55.4,48.2,77,30.12,10.0,Calm,Calm,-,N/A,,Overcast,0,2013-05-27 11:50:00
5:10 AM,55.4,48.2,77,30.12,10.0,SW,3.5,-,N/A,,Overcast,230,2013-05-27 12:10:00
5:30 AM,55.4,50.0,82,30.11,10.0,West,8.1,-,N/A,,Overcast,280,2013-05-27 12:30:00
5:50 AM,55.4,50.0,82,30.12,10.0,West,8.1,-,N/A,,Overcast,280,2013-05-27 12:50:00
6:10 AM,55.4,50.0,82,30.12,10.0,West,5.8,-,N/A,,Overcast,270,2013-05-27 13:10:00
6:30 AM,57.2,50.0,77,30.12,10.0,West,3.5,-,N/A,,Overcast,280,2013-05-27 13:30:00
6:50 AM,57.2,50.0,77,30.12,10.0,Calm,Calm,-,N/A,,Mostly Cloudy,0,2013-05-27 13:50:00
6:56 AM,57.2,50.0,77,30.12,10.0,West,3.5,-,N/A,,Mostly Cloudy,270,2013-05-27 13:56:00
7:52 AM,57.2,51.8,82,30.13,10.0,North,5.8,-,N/A,,Overcast,350,2013-05-27 14:52:00
8:31 AM,59.0,53.6,82,30.13,10.0,NW,5.8,-,N/A,,Mostly Cloudy,320,2013-05-27 15:31:00
8:50 AM,59.0,53.6,82,30.13,10.0,North,5.8,-,N/A,,Mostly Cloudy,350,2013-05-27 15:50:00
9:47 AM,62.6,53.6,72,30.13,10.0,NW,8.1,-,N/A,,Mostly Cloudy,320,2013-05-27 16:47:00
10:50 AM,62.6,51.8,68,30.11,10.0,WNW,9.2,-,N/A,,Mostly Cloudy,300,2013-05-27 17:50:00
11:47 AM,64.4,50.0,59,30.13,10.0,WNW,15.0,-,N/A,,Mostly Cloudy,300,2013-05-27 18:47:00
12:50 PM,62.6,53.6,72,30.14,10.0,West,8.1,-,N/A,Rain,Light Rain,270,2013-05-27 19:50:00
1:54 PM,62.6,53.6,72,30.14,10.0,West,8.1,-,N/A,,Mostly Cloudy,260,2013-05-27 20:54:00
2:54 PM,62.6,53.6,72,30.13,10.0,WSW,11.5,-,N/A,,Mostly Cloudy,250,2013-05-27 21:54:00
3:47 PM,62.6,53.6,72,30.12,10.0,West,9.2,-,N/A,,Mostly Cloudy,270,2013-05-27 22:47:00
4:59 PM,60.8,53.6,77,30.12,10.0,West,11.5,-,N/A,,Mostly Cloudy,270,2013-05-27 23:59:00
5:49 PM,60.8,51.8,72,30.11,10.0,West,9.2,-,N/A,,Overcast,260,2013-05-28 00:49:00
6:47 PM,62.6,51.8,68,30.08,10.0,WSW,6.9,-,N/A,,Overcast,250,2013-05-28 01:47:00
7:49 PM,62.6,53.6,72,30.07,10.0,West,4.6,-,N/A,,Overcast,260,2013-05-28 02:49:00
9:10 PM,60.8,53.6,77,30.05,10.0,SW,3.5,-,N/A,,Overcast,220,2013-05-28 04:10:00
9:30 PM,60.8,53.6,77,30.05,10.0,SW,3.5,-,N/A,,Overcast,230,2013-05-28 04:30:00
9:50 PM,60.8,53.6,77,30.04,10.0,SSW,4.6,-,N/A,,Overcast,210,2013-05-28 04:50:00
10:10 PM,60.8,53.6,77,30.04,10.0,WSW,6.9,-,N/A,,Overcast,240,2013-05-28 05:10:00
10:30 PM,60.8,53.6,77,30.06,10.0,WSW,10.4,-,N/A,,Overcast,250,2013-05-28 05:30:00
10:50 PM,59.0,55.4,88,30.05,8.0,WSW,6.9,-,N/A,Rain,Light Rain,240,2013-05-28 05:50:00
11:10 PM,59.0,55.4,88,30.04,8.0,SW,4.6,-,N/A,Rain,Light Rain,230,2013-05-28 06:10:00
11:30 PM,59.0,55.4,88,30.03,10.0,SW,4.6,-,N/A,,Overcast,220,2013-05-28 06:30:00
11:50 PM,59.0,55.4,88,30.02,10.0,SW,4.6,-,N/A,,Overcast,220,2013-05-28 06:50:00